User: anonymous   Login
Location: Sungai Anya
(2.6167°N, 114.0500°E)
Time: 12:01:35
(UTC+00:00)
Language:

Cosmos 1153 Rocket - Orbit

View from above orbital plane
View from above orbital plane
View from above satellite
View from above satellite

Ground track
Ground track

The orbit data is extracted from the following two-line orbital elements,

1 11681U 80007B   22275.86533444  .00000147  00000-0  13688-3 0  9998
2 11681  82.9309  58.5770 0036059 354.3731 115.0479 13.75503585138181
Epoch (UTC): 02 October 2022 20:46:04
Eccentricity: 0.0036059
inclination: 82.9309°
perigee height: 953 km
apogee height: 1006 km
right ascension of ascending node: 58.5770°
argument of perigee: 354.3731°
revolutions per day: 13.75503585
mean anomaly at epoch: 115.0479°
orbit number at epoch: 13818

The dashed part of the orbit path shows where the satellite is in the earth's shadow,  

DLR